sat.trackr.live / text

‹ back to catalog

STARLINK-31714

NORAD 59387 · 2024-062P

PAYLOAD ACTIVE UNKNOWN

§ Identity

Operator
Country
US
Launch date
2024-04-02
Launch site
AFWTR
Launch vehicle
Mass (kg)
RCS (m²)

Purposes: comms

External: N2YO · Heavens-Above · Gunter

§ Orbital elements

Epoch: 2026-05-24T16:13:31.416384Z

Period
93.90 min
Inclination
53.1583°
Eccentricity
0.0002425
Mean motion
15.33557415 rev/d
Perigee alt
463.5 km
Apogee alt
466.9 km
Semi-major
6,843.3 km
B*
2.8798e-4
RAAN
262.8288°
Arg perigee
79.6843°
Mean anomaly
280.4433°
Rev number
12,125

§ Raw data

STARLINK-317141 59387U 24062P   26144.67605806  .00009112  00000+0  28798-3 0  99902 59387  53.1583 262.8288 0002425  79.6843 280.4433 15.33557415121259

JSON: /api/v1/satellites/59387 · /tle

For live sub-satellite position, see the globe view (requires WebGL).

§ Visibility from observer

Set your observer location to see the next 7 days of passes ≥ 10°. The values pass through the URL so the page stays shareable.

No JS? Fill the form by hand. The geolocation button needs JavaScript.